Location: Haulchin
(50.3172°N, 3.4360°E)
Time: 02:27:48
(UTC+00:00)

Cosmos 1892 - Pass Details

Date: 23 May 2024
Orbit: 455 x 468 km, 82.5° (Epoch: 16 June)

Event Time Altitude Azimuth Distance (km) Brightness Sun altitude
Exits shadow 02:40:38 - 172° (S) 2,232 5.5 -8.9°
Reaches altitude 10° 02:42:10 10° 167° (SSE) 1,602 4.9 -8.8°
Maximum altitude 02:45:31 44° 95° (E) 648 3.5 -8.4°
Drops below altitude 10° 02:48:52 10° 22° (NNE) 1,610 6.5 -8.1°
Sets 02:51:00 0° 16° (NNE) 2,488 7.4 -7.8°
